Location: Val-d'Or
(48.1170°N, 77.7670°W)
Time: 09:36:54
(UTC-04:00)

ISS - Pass Details

Date: 23 May 2018
Orbit: 402 x 407 km, 51.6° (Epoch: 27 May)

Event Time Altitude Azimuth Distance (km) Brightness Sun altitude
Rises 23:54:33 0° 275° (W) 2,319 0.3 -19.2°
Reaches altitude 10° 23:56:42 10° 282° (WNW) 1,459 -0.6 -19.3°
Maximum altitude 23:59:50 43° 356° (N) 579 -2.6 -19.5°
Drops below altitude 10° 00:02:59 10° 70° (ENE) 1,458 -1.0 -19.6°
Sets 00:05:08 0° 77° (ENE) 2,318 0.0 -19.7°
Enters shadow 00:05:09 - 77° (ENE) 2,329 0.0 -19.7°
